Last 24 Hours

Squaw-Red Dog 6200'

Hourly Data | America/Los_Angeles
as of 5/30/20 9:38 PM PDT
Date & Time Temp (°F) RH (%) Dew Pt (°F) Wet Bulb (°F) Wind Dir (°) Wind Spd (mph) Wind Gust (mph) Latest Rain (In) New Snow (in) SnowDepth (in) Daily Min Temp (°F) Daily Max Temp (°F) Daily Rain (In)
5/30/20 - 2100 44.9 85 40.7 43.2 N | 4 6.2 14.8 0.00 82.0 66.1 44.7 60.8 0.00
5/30/20 - 2000 46.7 74 38.7 43.2 N | 2 7.1 17.6 0.00 81.0 84.7 45.7 60.8 0.00
5/30/20 - 1900 47.1 67 36.7 42.5 NNE | 12 10.0 18.5 0.00 80.5 75.3 45.7 60.8 0.00
5/30/20 - 1800 48.0 65 36.7 43.0 NNE | 12 7.6 14.3 0.00 80.0 77.7 45.7 60.8 0.00
5/30/20 - 1700 - 74 - - N | 11 8.2 18.7 0.00 80.9 77.3 45.7 60.8 0.00
5/30/20 - 1600 - 72 - - N | 4 6.3 16.1 0.00 79.3 72.0 45.9 60.8 0.00
5/30/20 - 1500 - 72 - - N | 5 4.1 13.7 0.00 82.4 63.8 45.9 60.8 0.00
5/30/20 - 1400 48.9 78 42.2 45.9 N | 6 6.1 15.8 0.00 79.4 76.1 45.9 60.8 0.00
5/30/20 - 1300 52.1 57 37.5 45.3 NNE | 19 9.6 24.5 0.00 91.4 84.9 45.9 60.8 0.00
5/30/20 - 1200 51.1 63 38.8 45.4 N | 9 9.4 20.7 0.00 82.8 76.5 45.9 60.8 0.00
5/30/20 - 1100 51.1 69 41.3 46.6 NNE | 19 7.7 16.3 0.00 78.5 64.4 45.9 60.8 0.00
5/30/20 - 1000 47.3 82 42.0 45.1 N | 5 5.9 18.0 0.00 77.7 78.1 45.9 60.8 0.00
5/30/20 - 0900 46.7 82 41.5 44.6 NNE | 16 10.7 25.4 0.00 76.9 64.0 45.9 60.8 0.00
5/30/20 - 0800 46.8 78 40.3 44.0 N | 4 12.9 23.6 0.00 78.6 63.0 46.4 60.8 0.00
5/30/20 - 0700 50.0 82 44.8 47.8 N | 1 13.2 22.0 0.00 76.0 0.4 49.9 60.8 0.00
5/30/20 - 0600 52.7 85 48.4 51.1 N | 360 8.7 16.3 0.00 77.0 - 52.2 60.8 0.00
5/30/20 - 0500 55.2 80 49.3 52.7 N | 357 8.6 14.0 0.00 78.4 63.5 52.2 60.8 0.00
5/30/20 - 0400 55.6 82 50.2 53.4 N | 355 6.0 14.3 0.00 78.6 76.0 52.2 60.8 0.00
5/30/20 - 0300 52.3 87 48.5 51.0 SW | 216 1.8 5.7 0.00 77.6 60.0 52.3 60.8 0.00
5/30/20 - 0200 57.9 80 51.9 55.4 N | 351 4.0 11.0 0.00 76.6 59.8 54.4 60.8 0.00
5/30/20 - 0100 60.4 70 50.8 55.6 N | 4 6.8 15.5 0.00 78.1 62.4 54.4 60.8 0.00
5/30/20 - 0000 55.6 76 48.3 52.2 WSW | 258 1.5 5.1 0.00 78.8 63.0 42.5 84.3 0.00
5/29/20 - 2300 58.6 62 45.9 52.2 W | 273 1.3 4.5 0.00 78.6 60.8 42.5 84.3 0.00
5/29/20 - 2200 - 68 - - W | 274 2.6 9.8 0.00 79.3 77.3 42.5 84.3 0.00
5/29/20 - 2100 63.6 55 47.0 54.5 W | 274 3.0 8.5 0.00 83.0 76.5 42.5 84.3 0.00
Max 63.6 87 51.9 55.6 - 13.2 25.4 0.00 91.4 84.9 54.4 84.3 0.00
Avg 52.0 74 43.9 48.3 - 6.8 15.4 0.00 79.7 67.6 - - -
Min 44.9 55 36.7 42.5 - 1.3 4.5 0.00 76.0 0.4 42.5 60.8 0.00
Total - - - - - - - 0.00 - - - - -